Time,TemperatureF,DewpointF,PressureIn,WindDirection,WindDirectionDegrees,WindSpeedMPH,WindSpeedGustMPH,Humidity,HourlyPrecipIn,Conditions,Clouds,dailyrainin,SoftwareType,DateUTC
2013-09-30 00:11:00,63.7,47.7,29.54,ESE,112,3.7,-999.0,56,-99.99,,,0.00,Acu-Link.com,2013-09-30 05:11:00,
2013-09-30 00:26:00,63.7,47.2,29.54,ESE,112,2.7,-999.0,55,-99.99,,,0.00,Acu-Link.com,2013-09-30 05:26:00,
2013-09-30 00:41:00,63.5,47.0,29.53,ESE,112,2.7,-999.0,55,-99.99,,,0.00,Acu-Link.com,2013-09-30 05:41:00,
2013-09-30 00:56:00,63.1,47.1,29.53,WNW,292,4.7,-999.0,56,-99.99,,,0.00,Acu-Link.com,2013-09-30 05:56:00,
2013-09-30 01:12:00,62.6,47.2,29.52,SE,135,3.7,-999.0,57,-99.99,,,0.00,Acu-Link.com,2013-09-30 06:12:00,
2013-09-30 01:27:00,62.4,47.0,29.52,ESE,112,3.7,-999.0,57,-99.99,,,0.00,Acu-Link.com,2013-09-30 06:27:00,
2013-09-30 01:42:00,62.4,47.0,29.53,East,90,3.7,-999.0,57,-99.99,,,0.00,Acu-Link.com,2013-09-30 06:42:00,
2013-09-30 01:57:00,62.4,47.0,29.52,NE,45,2.2,-999.0,57,-99.99,,,0.00,Acu-Link.com,2013-09-30 06:57:00,
2013-09-30 02:12:00,62.2,47.2,29.52,SE,135,2.2,-999.0,58,-99.99,,,0.00,Acu-Link.com,2013-09-30 07:12:00,
2013-09-30 02:27:00,62.1,47.1,29.52,East,90,2.7,-999.0,58,-99.99,,,0.00,Acu-Link.com,2013-09-30 07:27:00,
2013-09-30 02:43:00,61.7,46.8,29.51,NE,45,3.2,-999.0,58,-99.99,,,0.00,Acu-Link.com,2013-09-30 07:43:00,
2013-09-30 02:58:00,61.5,46.6,29.51,SSE,157,3.2,-999.0,58,-99.99,,,0.00,Acu-Link.com,2013-09-30 07:58:00,
2013-09-30 03:14:00,61.3,46.8,29.51,SW,225,3.7,-999.0,59,-99.99,,,0.00,Acu-Link.com,2013-09-30 08:14:00,
2013-09-30 03:29:00,60.6,46.6,29.50,NNE,22,3.2,-999.0,60,-99.99,,,0.00,Acu-Link.com,2013-09-30 08:29:00,
2013-09-30 03:45:00,60.1,46.6,29.50,East,90,2.7,-999.0,61,-99.99,,,0.00,Acu-Link.com,2013-09-30 08:45:00,
2013-09-30 04:00:00,59.9,46.8,29.50,ENE,67,2.7,-999.0,62,-99.99,,,0.00,Acu-Link.com,2013-09-30 09:00:00,
2013-09-30 04:15:00,59.5,46.9,29.49,ESE,112,1.7,-999.0,63,-99.99,,,0.00,Acu-Link.com,2013-09-30 09:15:00,
2013-09-30 04:30:00,59.4,46.8,29.49,North,0,2.7,-999.0,63,-99.99,,,0.00,Acu-Link.com,2013-09-30 09:30:00,
2013-09-30 04:45:00,59.2,46.6,29.49,SSE,157,2.2,-999.0,63,-99.99,,,0.00,Acu-Link.com,2013-09-30 09:45:00,
2013-09-30 05:02:00,59.0,46.8,29.49,ESE,112,2.2,-999.0,64,-99.99,,,0.00,Acu-Link.com,2013-09-30 10:02:00,
2013-09-30 05:17:00,58.6,46.9,29.49,West,270,2.7,-999.0,65,-99.99,,,0.00,Acu-Link.com,2013-09-30 10:17:00,
2013-09-30 05:32:00,58.3,47.0,29.49,ESE,112,1.7,-999.0,66,-99.99,,,0.00,Acu-Link.com,2013-09-30 10:32:00,
2013-09-30 05:47:00,58.3,47.0,29.49,ENE,67,1.7,-999.0,66,-99.99,,,0.00,Acu-Link.com,2013-09-30 10:47:00,
2013-09-30 06:02:00,57.9,47.0,29.48,ESE,112,2.7,-999.0,67,-99.99,,,0.00,Acu-Link.com,2013-09-30 11:02:00,
2013-09-30 06:19:00,57.6,46.7,29.48,SSE,157,2.2,-999.0,67,-99.99,,,0.00,Acu-Link.com,2013-09-30 11:19:00,
2013-09-30 06:50:00,57.0,46.5,29.48,NNE,22,0.0,-999.0,68,-99.99,,,0.00,Acu-Link.com,2013-09-30 11:50:00,
2013-09-30 07:05:00,55.6,46.7,29.47,ESE,112,1.1,-999.0,72,-99.99,,,0.00,Acu-Link.com,2013-09-30 12:05:00,
2013-09-30 07:20:00,55.2,46.7,29.47,East,90,0.0,-999.0,73,-99.99,,,0.00,Acu-Link.com,2013-09-30 12:20:00,
2013-09-30 07:35:00,54.9,46.8,29.48,WNW,292,0.0,-999.0,74,-99.99,,,0.00,Acu-Link.com,2013-09-30 12:35:00,
2013-09-30 07:50:00,54.9,46.8,29.48,East,90,1.1,-999.0,74,-99.99,,,0.00,Acu-Link.com,2013-09-30 12:50:00,
2013-09-30 08:05:00,54.9,47.1,29.48,SE,135,0.0,-999.0,75,-99.99,,,0.00,Acu-Link.com,2013-09-30 13:05:00,
2013-09-30 08:21:00,54.9,47.1,29.47,ESE,112,1.1,-999.0,75,-99.99,,,0.00,Acu-Link.com,2013-09-30 13:21:00,
2013-09-30 08:36:00,55.6,47.8,29.47,SE,135,2.2,-999.0,75,-99.99,,,0.00,Acu-Link.com,2013-09-30 13:36:00,
2013-09-30 08:51:00,57.0,48.8,29.47,East,90,2.2,-999.0,74,-99.99,,,0.00,Acu-Link.com,2013-09-30 13:51:00,
2013-09-30 09:06:00,58.1,48.7,29.47,West,270,1.7,-999.0,71,-99.99,,,0.00,Acu-Link.com,2013-09-30 14:06:00,
2013-09-30 09:21:00,59.4,49.2,29.47,SW,225,4.2,-999.0,69,-99.99,,,0.00,Acu-Link.com,2013-09-30 14:21:00,
2013-09-30 09:36:00,60.3,49.3,29.47,ESE,112,2.2,-999.0,67,-99.99,,,0.00,Acu-Link.com,2013-09-30 14:36:00,
2013-09-30 09:52:00,61.9,49.6,29.47,SE,135,2.7,-999.0,64,-99.99,,,0.00,Acu-Link.com,2013-09-30 14:52:00,
2013-09-30 10:07:00,62.4,49.6,29.47,South,180,2.7,-999.0,63,-99.99,,,0.00,Acu-Link.com,2013-09-30 15:07:00,
2013-09-30 10:22:00,63.0,50.2,29.47,West,270,3.7,-999.0,63,-99.99,,,0.00,Acu-Link.com,2013-09-30 15:22:00,
2013-09-30 10:37:00,63.9,50.6,29.47,SSW,202,2.2,-999.0,62,-99.99,,,0.00,Acu-Link.com,2013-09-30 15:37:00,
2013-09-30 10:52:00,64.4,50.7,29.47,ENE,67,1.7,-999.0,61,-99.99,,,0.00,Acu-Link.com,2013-09-30 15:52:00,
2013-09-30 11:07:00,65.7,51.0,29.48,ESE,112,1.7,-999.0,59,-99.99,,,0.00,Acu-Link.com,2013-09-30 16:07:00,
2013-09-30 11:22:00,66.7,51.4,29.47,NE,45,2.7,-999.0,58,-99.99,,,0.00,Acu-Link.com,2013-09-30 16:22:00,
2013-09-30 11:37:00,67.6,52.8,29.48,NW,315,1.1,-999.0,59,-99.99,,,0.00,Acu-Link.com,2013-09-30 16:37:00,
2013-09-30 11:53:00,66.9,50.7,29.47,NNW,337,1.7,-999.0,56,-99.99,,,0.00,Acu-Link.com,2013-09-30 16:53:00,
2013-09-30 12:08:00,67.8,51.5,29.47,SE,135,0.0,-999.0,56,-99.99,,,0.00,Acu-Link.com,2013-09-30 17:08:00,
2013-09-30 12:23:00,68.5,52.2,29.47,SSE,157,1.7,-999.0,56,-99.99,,,0.00,Acu-Link.com,2013-09-30 17:23:00,
2013-09-30 12:38:00,70.2,52.8,29.46,NNE,22,3.7,-999.0,54,-99.99,,,0.00,Acu-Link.com,2013-09-30 17:38:00,
2013-09-30 12:53:00,69.3,51.9,29.46,SW,225,2.7,-999.0,54,-99.99,,,0.00,Acu-Link.com,2013-09-30 17:53:00,
2013-09-30 13:09:00,70.3,52.3,29.47,ESE,112,3.7,-999.0,53,-99.99,,,0.00,Acu-Link.com,2013-09-30 18:09:00,
2013-09-30 13:24:00,71.6,52.5,29.46,NNE,22,1.7,-999.0,51,-99.99,,,0.00,Acu-Link.com,2013-09-30 18:24:00,
2013-09-30 13:39:00,72.0,52.3,29.45,WNW,292,1.7,-999.0,50,-99.99,,,0.00,Acu-Link.com,2013-09-30 18:39:00,
2013-09-30 13:54:00,73.2,53.4,29.44,South,180,4.2,-999.0,50,-99.99,,,0.00,Acu-Link.com,2013-09-30 18:54:00,
2013-09-30 14:09:00,73.4,52.5,29.44,ESE,112,1.7,-999.0,48,-99.99,,,0.00,Acu-Link.com,2013-09-30 19:09:00,
2013-09-30 14:25:00,75.0,52.2,29.44,NNW,337,2.2,-999.0,45,-99.99,,,0.00,Acu-Link.com,2013-09-30 19:25:00,
2013-09-30 14:40:00,75.2,53.0,29.44,ESE,112,2.7,-999.0,46,-99.99,,,0.00,Acu-Link.com,2013-09-30 19:40:00,
2013-09-30 14:55:00,77.4,54.4,29.44,South,180,1.7,-999.0,45,-99.99,,,0.00,Acu-Link.com,2013-09-30 19:55:00,
2013-09-30 15:10:00,77.2,53.0,29.44,ESE,112,2.7,-999.0,43,-99.99,,,0.00,Acu-Link.com,2013-09-30 20:10:00,
2013-09-30 15:25:00,79.2,54.1,29.43,ESE,112,3.2,-999.0,42,-99.99,,,0.00,Acu-Link.com,2013-09-30 20:25:00,
2013-09-30 15:40:00,78.4,52.7,29.43,SW,225,2.7,-999.0,41,-99.99,,,0.00,Acu-Link.com,2013-09-30 20:40:00,
2013-09-30 15:56:00,78.8,53.1,29.42,NW,315,1.1,-999.0,41,-99.99,,,0.00,Acu-Link.com,2013-09-30 20:56:00,
2013-09-30 16:11:00,78.4,52.1,29.42,North,0,1.7,-999.0,40,-99.99,,,0.00,Acu-Link.com,2013-09-30 21:11:00,
2013-09-30 16:26:00,77.5,52.6,29.42,ESE,112,2.7,-999.0,42,-99.99,,,0.00,Acu-Link.com,2013-09-30 21:26:00,
2013-09-30 16:41:00,77.2,53.0,29.41,East,90,0.0,-999.0,43,-99.99,,,0.00,Acu-Link.com,2013-09-30 21:41:00,
2013-09-30 16:56:00,77.2,53.6,29.41,NNE,22,4.2,-999.0,44,-99.99,,,0.00,Acu-Link.com,2013-09-30 21:56:00,
2013-09-30 17:12:00,77.0,53.4,29.42,West,270,0.0,-999.0,44,-99.99,,,0.00,Acu-Link.com,2013-09-30 22:12:00,
2013-09-30 17:27:00,76.6,53.0,29.42,East,90,0.0,-999.0,44,-99.99,,,0.00,Acu-Link.com,2013-09-30 22:27:00,
2013-09-30 17:42:00,75.7,54.0,29.41,ESE,112,0.0,-999.0,47,-99.99,,,0.00,Acu-Link.com,2013-09-30 22:42:00,
2013-09-30 17:58:00,74.7,55.9,29.42,WSW,247,0.0,-999.0,52,-99.99,,,0.00,Acu-Link.com,2013-09-30 22:58:00,
2013-09-30 18:13:00,73.4,56.7,29.42,East,90,0.0,-999.0,56,-99.99,,,0.00,Acu-Link.com,2013-09-30 23:13:00,
2013-09-30 18:28:00,71.6,56.5,29.42,ENE,67,0.0,-999.0,59,-99.99,,,0.00,Acu-Link.com,2013-09-30 23:28:00,
2013-09-30 18:43:00,69.1,56.4,29.42,ESE,112,0.0,-999.0,64,-99.99,,,0.00,Acu-Link.com,2013-09-30 23:43:00,
2013-09-30 18:58:00,68.2,57.2,29.41,East,90,0.0,-999.0,68,-99.99,,,0.00,Acu-Link.com,2013-09-30 23:58:00,
2013-09-30 19:14:00,67.3,56.4,29.41,NE,45,0.0,-999.0,68,-99.99,,,0.00,Acu-Link.com,2013-10-01 00:14:00,
2013-09-30 19:29:00,66.7,56.6,29.42,ENE,67,0.0,-999.0,70,-99.99,,,0.00,Acu-Link.com,2013-10-01 00:29:00,
2013-09-30 19:44:00,66.6,55.7,29.42,NE,45,0.0,-999.0,68,-99.99,,,0.00,Acu-Link.com,2013-10-01 00:44:00,
2013-09-30 19:59:00,67.5,54.9,29.43,South,180,0.0,-999.0,64,-99.99,,,0.00,Acu-Link.com,2013-10-01 00:59:00,
2013-09-30 20:14:00,67.8,53.4,29.44,East,90,0.0,-999.0,60,-99.99,,,0.00,Acu-Link.com,2013-10-01 01:14:00,
2013-09-30 20:30:00,68.0,54.0,29.43,ESE,112,0.0,-999.0,61,-99.99,,,0.00,Acu-Link.com,2013-10-01 01:30:00,
2013-09-30 20:45:00,68.5,53.1,29.43,North,0,0.0,-999.0,58,-99.99,,,0.00,Acu-Link.com,2013-10-01 01:45:00,
2013-09-30 21:00:00,68.2,53.8,29.43,North,0,0.0,-999.0,60,-99.99,,,0.00,Acu-Link.com,2013-10-01 02:00:00,
2013-09-30 21:15:00,67.3,53.8,29.43,ENE,67,0.0,-999.0,62,-99.99,,,0.00,Acu-Link.com,2013-10-01 02:15:00,
2013-09-30 21:30:00,65.8,53.3,29.42,ENE,67,0.0,-999.0,64,-99.99,,,0.00,Acu-Link.com,2013-10-01 02:30:00,
2013-09-30 21:46:00,65.1,53.9,29.42,ESE,112,0.0,-999.0,67,-99.99,,,0.00,Acu-Link.com,2013-10-01 02:46:00,
2013-09-30 22:01:00,64.9,52.8,29.43,ESE,112,0.0,-999.0,65,-99.99,,,0.00,Acu-Link.com,2013-10-01 03:01:00,
2013-09-30 22:16:00,65.8,52.4,29.43,ESE,112,1.7,-999.0,62,-99.99,,,0.00,Acu-Link.com,2013-10-01 03:16:00,
2013-09-30 22:31:00,66.7,52.4,29.43,East,90,1.7,-999.0,60,-99.99,,,0.00,Acu-Link.com,2013-10-01 03:31:00,
2013-09-30 22:46:00,66.4,52.1,29.42,ESE,112,1.1,-999.0,60,-99.99,,,0.00,Acu-Link.com,2013-10-01 03:46:00,
2013-09-30 23:01:00,66.2,52.8,29.42,ESE,112,0.0,-999.0,62,-99.99,,,0.00,Acu-Link.com,2013-10-01 04:01:00,
2013-09-30 23:17:00,66.2,52.8,29.42,NNE,22,1.1,-999.0,62,-99.99,,,0.00,Acu-Link.com,2013-10-01 04:17:00,
2013-09-30 23:32:00,66.7,52.8,29.41,ESE,112,2.2,-999.0,61,-99.99,,,0.00,Acu-Link.com,2013-10-01 04:32:00,
2013-09-30 23:47:00,66.4,53.0,29.41,SSW,202,2.7,-999.0,62,-99.99,,,0.00,Acu-Link.com,2013-10-01 04:47:00,